User: anonymous   Login
Location: Unspecified
(0.0000°N, 0.0000°E)
Time: 05:58:45
(UTC+02:00)
Language:

CZ-4B R/B - Orbit

View from above orbital plane
View from above orbital plane
View from above satellite
View from above satellite

Ground track
Ground track

The orbit data is extracted from the following two-line orbital elements,

1 33410U 08053C   16151.89424454  .00000716  00000-0  57343-4 0  9991
2 33410  97.6783 121.3810 0122642  34.3978 326.5107 14.97698569413556
Epoch (UTC): 30 May 2016 21:27:42
Eccentricity: 0.0122642
inclination: 97.6783°
perigee height: 489 km
apogee height: 659 km
right ascension of ascending node: 121.3810°
argument of perigee: 34.3978°
revolutions per day: 14.97698569
mean anomaly at epoch: 326.5107°
orbit number at epoch: 41355

The dashed part of the orbit path shows where the satellite is in the earth's shadow,  

DLR